| time (UTC) | temp F | wind direction | speed MPH | gust MPH | rain 1hr in | rain 24hr in | rain mn in | humidity % | barometer mb |
| 20260510043532 | 39 | 152 | 2.0 | 3.0 | 0.00 | 0.00 | 0.00 | 80 | 1011.7 |
| 20260510043058 | 39 | 171 | 1.0 | 3.0 | 0.00 | 0.00 | 0.00 | 80 | 1011.7 |
| 20260510042529 | 39 | 0 | 0.0 | 4.0 | 0.00 | 0.00 | 0.00 | 80 | 1011.7 |
| 20260510042030 | 39 | 146 | 1.0 | 4.0 | 0.00 | 0.00 | 0.00 | 80 | 1011.9 |
| 20260510041539 | 39 | 158 | 1.0 | 4.0 | 0.00 | 0.00 | 0.00 | 80 | 1011.9 |
| 20260510041030 | 39 | 150 | 1.0 | 4.0 | 0.00 | 0.00 | 0.00 | 80 | 1011.9 |
| 20260510040532 | 39 | 137 | 1.0 | 4.0 | 0.00 | 0.00 | 0.00 | 80 | 1012.0 |
| 20260510040044 | 39 | 136 | 1.0 | 4.0 | 0.00 | 0.00 | 0.00 | 80 | 1011.9 |
| 20260510035528 | 39 | 152 | 2.0 | 4.0 | 0.00 | 0.00 | 0.00 | 79 | 1012.0 |
| 20260510035031 | 39 | 0 | 0.0 | 2.0 | 0.00 | 0.00 | 0.00 | 79 | 1012.0 |
| 20260510034542 | 39 | 0 | 0.0 | 0.0 | 0.00 | 0.00 | 0.00 | 80 | 1012.1 |
| 20260510034032 | 39 | 0 | 0.0 | 0.0 | 0.00 | 0.00 | 0.00 | 80 | 1012.1 |
| 20260510033532 | 39 | 0 | 0.0 | 0.0 | 0.00 | 0.00 | 0.00 | 81 | 1012.1 |
| 20260510033040 | 38 | 0 | 0.0 | 5.0 | 0.00 | 0.00 | 0.00 | 82 | 1012.1 |
| 20260510032531 | 38 | 0 | 0.0 | 5.0 | 0.00 | 0.00 | 0.00 | 82 | 1012.2 |
| 20260510032033 | 37 | 125 | 0.0 | 3.0 | 0.00 | 0.00 | 0.00 | 83 | 1012.1 |
| 20260510031549 | 37 | 0 | 0.0 | 2.0 | 0.00 | 0.00 | 0.00 | 83 | 1012.1 |
| 20260510031031 | 37 | 0 | 0.0 | 1.0 | 0.00 | 0.00 | 0.00 | 84 | 1012.2 |
| 20260510030531 | 36 | 162 | 0.0 | 1.0 | 0.00 | 0.00 | 0.00 | 84 | 1012.3 |
| 20260510030041 | 37 | 0 | 0.0 | 2.0 | 0.00 | 0.00 | 0.00 | 84 | 1012.3 |
| 20260510025531 | 37 | 0 | 0.0 | 2.0 | 0.00 | 0.00 | 0.00 | 84 | 1012.3 |
| 20260510025031 | 37 | 105 | 0.0 | 1.0 | 0.00 | 0.00 | 0.00 | 83 | 1012.3 |
| 20260510024544 | 37 | 264 | 0.0 | 2.0 | 0.00 | 0.00 | 0.00 | 82 | 1012.4 |
| 20260510024031 | 38 | 0 | 0.0 | 2.0 | 0.00 | 0.00 | 0.00 | 82 | 1012.5 |
| 20260510023530 | 38 | 0 | 0.0 | 1.0 | 0.00 | 0.00 | 0.00 | 82 | 1012.4 |
| 20260510023046 | 38 | 0 | 0.0 | 3.0 | 0.00 | 0.00 | 0.00 | 82 | 1012.5 |
| 20260510022532 | 38 | 0 | 0.0 | 3.0 | 0.00 | 0.00 | 0.00 | 82 | 1012.5 |
| 20260510022030 | 39 | 0 | 0.0 | 3.0 | 0.00 | 0.00 | 0.00 | 82 | 1012.5 |
| 20260510021550 | 38 | 0 | 0.0 | 3.0 | 0.00 | 0.00 | 0.00 | 82 | 1012.6 |
| 20260510021031 | 38 | 0 | 0.0 | 2.0 | 0.00 | 0.00 | 0.00 | 83 | 1012.6 |
| 20260510020534 | 39 | 0 | 0.0 | 2.0 | 0.00 | 0.00 | 0.00 | 82 | 1012.6 |
| 20260510020042 | 39 | 0 | 0.0 | 2.0 | 0.00 | 0.00 | 0.00 | 82 | 1012.6 |
| 20260510015530 | 39 | 0 | 0.0 | 2.0 | 0.00 | 0.00 | 0.00 | 82 | 1012.7 |
| 20260510015027 | 39 | 0 | 0.0 | 3.0 | 0.00 | 0.00 | 0.00 | 82 | 1012.8 |
| 20260510014541 | 39 | 0 | 0.0 | 3.0 | 0.00 | 0.00 | 0.00 | 82 | 1012.7 |
| 20260510014032 | 39 | 0 | 0.0 | 3.0 | 0.00 | 0.00 | 0.00 | 83 | 1012.7 |
| 20260510013531 | 39 | 0 | 0.0 | 3.0 | 0.00 | 0.00 | 0.00 | 84 | 1012.8 |
| 20260510013048 | 39 | 152 | 0.0 | 3.0 | 0.00 | 0.00 | 0.00 | 86 | 1012.9 |
| 20260510012532 | 39 | 0 | 0.0 | 0.0 | 0.00 | 0.00 | 0.00 | 86 | 1013.0 |
| 20260510012032 | 40 | 0 | 0.0 | 2.0 | 0.00 | 0.00 | 0.00 | 86 | 1013.0 |
| 20260510011550 | 40 | 0 | 0.0 | 2.0 | 0.00 | 0.00 | 0.00 | 86 | 1013.0 |
| 20260510011031 | 40 | 150 | 0.0 | 2.0 | 0.00 | 0.00 | 0.00 | 86 | 1013.0 |
| 20260510010530 | 40 | 0 | 0.0 | 3.0 | 0.00 | 0.00 | 0.00 | 87 | 1013.0 |
| 20260510010044 | 40 | 158 | 1.0 | 4.0 | 0.00 | 0.00 | 0.00 | 88 | 1013.0 |
| 20260510005529 | 40 | 139 | 1.0 | 5.0 | 0.00 | 0.00 | 0.00 | 89 | 1013.1 |
| 20260510005029 | 40 | 142 | 0.0 | 5.0 | 0.00 | 0.00 | 0.00 | 89 | 1013.1 |
| 20260510004546 | 40 | 0 | 1.0 | 5.0 | 0.00 | 0.00 | 0.00 | 89 | 1013.0 |
| 20260510004032 | 40 | 146 | 0.0 | 3.0 | 0.00 | 0.00 | 0.00 | 89 | 1013.1 |
| 20260510003530 | 40 | 134 | 0.0 | 2.0 | 0.00 | 0.00 | 0.00 | 89 | 1013.1 |
| 20260510003043 | 40 | 111 | 0.0 | 3.0 | 0.00 | 0.00 | 0.00 | 89 | 1013.2 |
| 20260510002532 | 40 | 0 | 0.0 | 3.0 | 0.00 | 0.00 | 0.00 | 88 | 1013.2 |
| 20260510002029 | 40 | 140 | 0.0 | 1.0 | 0.00 | 0.00 | 0.00 | 88 | 1013.2 |
| 20260510001543 | 40 | 0 | 0.0 | 3.0 | 0.00 | 0.00 | 0.00 | 88 | 1013.3 |
| 20260510001030 | 40 | 0 | 0.0 | 3.0 | 0.00 | 0.00 | 0.00 | 88 | 1013.2 |
| 20260510000529 | 40 | 0 | 0.0 | 2.0 | 0.00 | 0.00 | 0.00 | 88 | 1013.4 |
| 20260510000048 | 40 | 0 | 0.0 | 2.0 | 0.00 | 0.00 | 0.00 | 88 | 1013.4 |
| 20260509235529 | 40 | 0 | 0.0 | 1.0 | 0.00 | 0.00 | 0.00 | 88 | 1013.4 |
| 20260509235029 | 40 | 0 | 0.0 | 1.0 | 0.00 | 0.00 | 0.00 | 89 | 1013.4 |
| 20260509234538 | 39 | 251 | 0.0 | 3.0 | 0.00 | 0.00 | 0.00 | 87 | 1013.4 |
| 20260509234032 | 39 | 251 | 1.0 | 3.0 | 0.00 | 0.00 | 0.00 | 87 | 1013.4 |
| 20260509233530 | 40 | 205 | 1.0 | 3.0 | 0.00 | 0.00 | 0.00 | 85 | 1013.3 |
| 20260509233043 | 40 | 265 | 0.0 | 2.0 | 0.00 | 0.00 | 0.00 | 86 | 1013.3 |
| 20260509232531 | 40 | 255 | 1.0 | 1.0 | 0.00 | 0.00 | 0.00 | 87 | 1013.3 |
| 20260509232031 | 40 | 252 | 0.0 | 1.0 | 0.00 | 0.00 | 0.00 | 86 | 1013.5 |
| 20260509231544 | 40 | 246 | 0.0 | 1.0 | 0.00 | 0.00 | 0.00 | 86 | 1013.6 |
| 20260509231031 | 40 | 0 | 0.0 | 0.0 | 0.00 | 0.00 | 0.00 | 87 | 1013.6 |
| 20260509230530 | 39 | 0 | 0.0 | 0.0 | 0.00 | 0.00 | 0.00 | 86 | 1013.7 |
| 20260509230041 | 39 | 0 | 0.0 | 0.0 | 0.00 | 0.00 | 0.00 | 86 | 1013.6 |
| 20260509225530 | 40 | 0 | 0.0 | 0.0 | 0.00 | 0.00 | 0.00 | 86 | 1013.8 |
| 20260509225029 | 40 | 0 | 0.0 | 2.0 | 0.00 | 0.00 | 0.00 | 85 | 1013.8 |
| 20260509224540 | 40 | 0 | 0.0 | 2.0 | 0.00 | 0.00 | 0.00 | 85 | 1013.8 |
| 20260509224030 | 40 | 158 | 0.0 | 0.0 | 0.00 | 0.00 | 0.00 | 85 | 1013.9 |
| 20260509223530 | 40 | 0 | 0.0 | 0.0 | 0.00 | 0.00 | 0.00 | 85 | 1013.8 |
| 20260509223040 | 40 | 0 | 0.0 | 0.0 | 0.00 | 0.00 | 0.00 | 85 | 1013.8 |
| 20260509222532 | 40 | 0 | 0.0 | 0.0 | 0.00 | 0.00 | 0.00 | 85 | 1013.8 |
| 20260509222035 | 40 | 0 | 0.0 | 1.0 | 0.00 | 0.00 | 0.00 | 86 | 1013.9 |
| 20260509221543 | 40 | 0 | 0.0 | 2.0 | 0.00 | 0.00 | 0.00 | 85 | 1013.9 |
| 20260509221030 | 40 | 0 | 1.0 | 2.0 | 0.00 | 0.00 | 0.00 | 85 | 1013.9 |
| 20260509220533 | 41 | 248 | 0.0 | 2.0 | 0.00 | 0.00 | 0.00 | 85 | 1013.9 |
| 20260509220042 | 41 | 0 | 0.0 | 0.0 | 0.00 | 0.00 | 0.00 | 86 | 1013.9 |
| 20260509215532 | 40 | 0 | 0.0 | 0.0 | 0.00 | 0.00 | 0.00 | 86 | 1013.9 |
| 20260509215030 | 40 | 0 | 0.0 | 0.0 | 0.00 | 0.00 | 0.00 | 86 | 1014.0 |
| 20260509214555 | 41 | 0 | 0.0 | 0.0 | 0.00 | 0.00 | 0.00 | 86 | 1014.1 |
| 20260509214029 | 41 | 0 | 0.0 | 0.0 | 0.00 | 0.00 | 0.00 | 85 | 1014.0 |
| 20260509213532 | 41 | 0 | 0.0 | 0.0 | 0.00 | 0.00 | 0.00 | 86 | 1014.1 |
| 20260509213049 | 41 | 0 | 0.0 | 0.0 | 0.00 | 0.00 | 0.00 | 86 | 1014.1 |
| 20260509212529 | 41 | 0 | 0.0 | 0.0 | 0.00 | 0.00 | 0.00 | 86 | 1014.1 |
| 20260509212029 | 41 | 0 | 0.0 | 0.0 | 0.00 | 0.00 | 0.00 | 86 | 1014.1 |
| 20260509211541 | 41 | 0 | 0.0 | 0.0 | 0.00 | 0.00 | 0.00 | 86 | 1014.1 |
| 20260509211030 | 41 | 0 | 0.0 | 0.0 | 0.00 | 0.00 | 0.00 | 86 | 1014.1 |
| 20260509210530 | 41 | 0 | 0.0 | 0.0 | 0.00 | 0.00 | 0.00 | 85 | 1014.1 |
| 20260509210044 | 42 | 0 | 0.0 | 0.0 | 0.00 | 0.00 | 0.00 | 85 | 1014.0 |
| 20260509205530 | 42 | 0 | 0.0 | 0.0 | 0.00 | 0.00 | 0.00 | 85 | 1014.1 |
| 20260509205030 | 42 | 0 | 0.0 | 0.0 | 0.00 | 0.00 | 0.00 | 85 | 1014.1 |
| 20260509204546 | 42 | 0 | 0.0 | 0.0 | 0.00 | 0.00 | 0.00 | 85 | 1014.2 |
| 20260509204029 | 42 | 0 | 0.0 | 0.0 | 0.00 | 0.00 | 0.00 | 85 | 1014.1 |
| 20260509203529 | 42 | 0 | 0.0 | 0.0 | 0.00 | 0.00 | 0.00 | 85 | 1014.3 |
| 20260509203056 | 42 | 0 | 0.0 | 0.0 | 0.00 | 0.00 | 0.00 | 84 | 1014.2 |
| 20260509202530 | 42 | 0 | 0.0 | 0.0 | 0.00 | 0.00 | 0.00 | 85 | 1014.2 |
| 20260509202032 | 42 | 0 | 0.0 | 0.0 | 0.00 | 0.00 | 0.00 | 85 | 1014.2 |
| 20260509201541 | 42 | 0 | 0.0 | 0.0 | 0.00 | 0.00 | 0.00 | 85 | 1014.2 |
| 20260509201029 | 42 | 0 | 0.0 | 0.0 | 0.00 | 0.00 | 0.00 | 84 | 1014.4 |
| 20260509200529 | 43 | 0 | 0.0 | 0.0 | 0.00 | 0.00 | 0.00 | 84 | 1014.4 |
| 20260509200042 | 43 | 0 | 0.0 | 0.0 | 0.00 | 0.00 | 0.00 | 84 | 1014.3 |
| 20260509195531 | 43 | 0 | 0.0 | 0.0 | 0.00 | 0.00 | 0.00 | 84 | 1014.4 |
| 20260509195029 | 43 | 0 | 0.0 | 0.0 | 0.00 | 0.00 | 0.00 | 84 | 1014.4 |
| 20260509194541 | 43 | 0 | 0.0 | 0.0 | 0.00 | 0.00 | 0.00 | 84 | 1014.3 |
| 20260509194030 | 43 | 0 | 0.0 | 0.0 | 0.00 | 0.00 | 0.00 | 84 | 1014.3 |
| 20260509193529 | 43 | 0 | 0.0 | 0.0 | 0.00 | 0.00 | 0.00 | 84 | 1014.3 |
| 20260509193052 | 43 | 0 | 0.0 | 0.0 | 0.00 | 0.00 | 0.00 | 84 | 1014.4 |
| 20260509192531 | 43 | 0 | 0.0 | 0.0 | 0.00 | 0.00 | 0.00 | 84 | 1014.3 |
| 20260509192030 | 43 | 0 | 0.0 | 0.0 | 0.00 | 0.00 | 0.00 | 84 | 1014.4 |
| 20260509191556 | 43 | 0 | 0.0 | 0.0 | 0.00 | 0.00 | 0.00 | 84 | 1014.3 |
| 20260509191029 | 43 | 0 | 0.0 | 0.0 | 0.00 | 0.00 | 0.00 | 84 | 1014.3 |
| 20260509190533 | 43 | 0 | 0.0 | 0.0 | 0.00 | 0.00 | 0.00 | 83 | 1014.3 |
| 20260509190050 | 43 | 0 | 0.0 | 0.0 | 0.00 | 0.00 | 0.00 | 83 | 1014.5 |
| 20260509185530 | 43 | 0 | 0.0 | 0.0 | 0.00 | 0.00 | 0.00 | 83 | 1014.3 |
| 20260509185030 | 43 | 0 | 0.0 | 0.0 | 0.00 | 0.00 | 0.00 | 83 | 1014.3 |
| 20260509184552 | 43 | 0 | 0.0 | 0.0 | 0.00 | 0.00 | 0.00 | 83 | 1014.3 |
| 20260509184030 | 43 | 0 | 0.0 | 0.0 | 0.00 | 0.00 | 0.00 | 83 | 1014.4 |
| 20260509183530 | 43 | 0 | 0.0 | 0.0 | 0.00 | 0.00 | 0.00 | 82 | 1014.2 |
| 20260509183050 | 44 | 0 | 0.0 | 0.0 | 0.00 | 0.00 | 0.00 | 82 | 1014.3 |
| 20260509182530 | 44 | 0 | 0.0 | 0.0 | 0.00 | 0.00 | 0.00 | 81 | 1014.3 |
| 20260509182029 | 44 | 0 | 0.0 | 0.0 | 0.00 | 0.00 | 0.00 | 81 | 1014.3 |
| 20260509181548 | 45 | 0 | 0.0 | 0.0 | 0.00 | 0.00 | 0.00 | 79 | 1014.2 |
| 20260509181033 | 45 | 0 | 0.0 | 0.0 | 0.00 | 0.00 | 0.00 | 79 | 1014.3 |
| 20260509180531 | 45 | 0 | 0.0 | 0.0 | 0.00 | 0.00 | 0.00 | 79 | 1014.4 |
| 20260509180047 | 45 | 0 | 0.0 | 0.0 | 0.00 | 0.00 | 0.00 | 78 | 1014.3 |
| 20260509175532 | 45 | 0 | 0.0 | 0.0 | 0.00 | 0.00 | 0.00 | 78 | 1014.4 |
| 20260509175030 | 45 | 0 | 0.0 | 0.0 | 0.00 | 0.00 | 0.00 | 78 | 1014.4 |
| 20260509174558 | 45 | 0 | 0.0 | 1.0 | 0.00 | 0.00 | 0.00 | 78 | 1014.4 |
| 20260509174030 | 45 | 0 | 0.0 | 1.0 | 0.00 | 0.00 | 0.00 | 78 | 1014.3 |
| 20260509173529 | 45 | 0 | 0.0 | 0.0 | 0.00 | 0.00 | 0.00 | 78 | 1014.5 |
| 20260509173049 | 45 | 0 | 0.0 | 2.0 | 0.00 | 0.00 | 0.00 | 78 | 1014.5 |
| 20260509172530 | 45 | 0 | 0.0 | 3.0 | 0.00 | 0.00 | 0.00 | 78 | 1014.3 |
| 20260509172030 | 46 | 51 | 0.0 | 3.0 | 0.00 | 0.00 | 0.00 | 79 | 1014.3 |
| 20260509171540 | 46 | 57 | 0.0 | 3.0 | 0.00 | 0.00 | 0.00 | 78 | 1014.4 |
| 20260509171029 | 45 | 60 | 1.0 | 4.0 | 0.00 | 0.00 | 0.00 | 79 | 1014.4 |
| 20260509170529 | 45 | 109 | 1.0 | 5.0 | 0.00 | 0.00 | 0.00 | 80 | 1014.4 |
| 20260509170041 | 45 | 49 | 1.0 | 5.0 | 0.00 | 0.00 | 0.00 | 80 | 1014.4 |
| 20260509165529 | 46 | 0 | 0.0 | 3.0 | 0.00 | 0.00 | 0.00 | 80 | 1014.5 |
| 20260509165029 | 46 | 0 | 0.0 | 0.0 | 0.00 | 0.00 | 0.00 | 80 | 1014.4 |
| 20260509164547 | 46 | 0 | 0.0 | 0.0 | 0.00 | 0.00 | 0.00 | 79 | 1014.4 |
| 20260509164029 | 46 | 0 | 0.0 | 0.0 | 0.00 | 0.00 | 0.00 | 79 | 1014.6 |
| 20260509163530 | 46 | 0 | 0.0 | 0.0 | 0.00 | 0.00 | 0.00 | 80 | 1014.6 |
| 20260509163045 | 46 | 0 | 0.0 | 0.0 | 0.00 | 0.00 | 0.00 | 80 | 1014.6 |
| 20260509162530 | 46 | 0 | 0.0 | 0.0 | 0.00 | 0.00 | 0.00 | 79 | 1014.7 |
| 20260509162030 | 46 | 0 | 0.0 | 0.0 | 0.00 | 0.00 | 0.00 | 79 | 1014.6 |
| 20260509161541 | 46 | 0 | 0.0 | 0.0 | 0.00 | 0.00 | 0.00 | 79 | 1014.6 |
| 20260509161037 | 46 | 0 | 0.0 | 0.0 | 0.00 | 0.00 | 0.00 | 78 | 1014.7 |
| 20260509160530 | 46 | 0 | 0.0 | 3.0 | 0.00 | 0.00 | 0.00 | 77 | 1014.8 |
| 20260509160039 | 46 | 0 | 0.0 | 4.0 | 0.00 | 0.00 | 0.00 | 75 | 1014.6 |
| 20260509155529 | 47 | 0 | 1.0 | 4.0 | 0.00 | 0.00 | 0.00 | 74 | 1014.6 |
| 20260509155029 | 47 | 120 | 0.0 | 4.0 | 0.00 | 0.00 | 0.00 | 75 | 1014.5 |
| 20260509154540 | 47 | 127 | 1.0 | 4.0 | 0.00 | 0.00 | 0.00 | 75 | 1014.5 |
| 20260509154030 | 47 | 0 | 0.0 | 3.0 | 0.00 | 0.00 | 0.00 | 74 | 1014.6 |
| 20260509153534 | 47 | 0 | 1.0 | 4.0 | 0.00 | 0.00 | 0.00 | 74 | 1014.5 |
| 20260509153053 | 48 | 342 | 0.0 | 5.0 | 0.00 | 0.00 | 0.00 | 73 | 1014.5 |
| 20260509152529 | 48 | 231 | 1.0 | 8.0 | 0.00 | 0.00 | 0.00 | 72 | 1014.3 |
| 20260509152029 | 48 | 122 | 2.0 | 8.0 | 0.00 | 0.00 | 0.00 | 73 | 1014.5 |
| 20260509151547 | 48 | 214 | 1.0 | 9.0 | 0.00 | 0.00 | 0.00 | 73 | 1014.4 |
| 20260509151030 | 48 | 224 | 2.0 | 9.0 | 0.00 | 0.00 | 0.00 | 73 | 1014.3 |
| 20260509150530 | 48 | 338 | 2.0 | 9.0 | 0.00 | 0.00 | 0.00 | 73 | 1014.5 |
| 20260509150045 | 49 | 82 | 2.0 | 10.0 | 0.00 | 0.00 | 0.00 | 72 | 1014.4 |
| 20260509145530 | 49 | 59 | 4.0 | 10.0 | 0.00 | 0.00 | 0.00 | 72 | 1014.4 |
| 20260509145030 | 49 | 100 | 2.0 | 8.0 | 0.00 | 0.00 | 0.00 | 73 | 1014.4 |
| 20260509144542 | 49 | 141 | 2.0 | 8.0 | 0.00 | 0.00 | 0.00 | 73 | 1014.5 |
| 20260509144031 | 49 | 57 | 1.0 | 7.0 | 0.00 | 0.00 | 0.00 | 73 | 1014.4 |
| 20260509143530 | 49 | 162 | 1.0 | 6.0 | 0.00 | 0.00 | 0.00 | 72 | 1014.6 |
| 20260509143040 | 49 | 118 | 2.0 | 9.0 | 0.00 | 0.00 | 0.00 | 73 | 1014.5 |
| 20260509142532 | 49 | 221 | 2.0 | 9.0 | 0.00 | 0.00 | 0.00 | 71 | 1014.5 |
| 20260509142029 | 49 | 53 | 3.0 | 12.0 | 0.00 | 0.00 | 0.00 | 70 | 1014.3 |
| 20260509141548 | 49 | 118 | 2.0 | 13.0 | 0.00 | 0.00 | 0.00 | 71 | 1014.3 |
| 20260509141030 | 49 | 38 | 3.0 | 13.0 | 0.00 | 0.00 | 0.00 | 71 | 1014.2 |
| 20260509140529 | 49 | 60 | 2.0 | 8.0 | 0.00 | 0.00 | 0.00 | 70 | 1014.2 |
| 20260509140040 | 49 | 105 | 2.0 | 7.0 | 0.00 | 0.00 | 0.00 | 71 | 1014.2 |
| 20260509135532 | 49 | 116 | 3.0 | 10.0 | 0.00 | 0.00 | 0.00 | 71 | 1014.3 |
| 20260509135033 | 49 | 20 | 2.0 | 10.0 | 0.00 | 0.00 | 0.00 | 72 | 1014.4 |
| 20260509134542 | 49 | 30 | 1.0 | 6.0 | 0.00 | 0.00 | 0.00 | 73 | 1014.5 |
| 20260509134029 | 49 | 64 | 2.0 | 6.0 | 0.00 | 0.00 | 0.00 | 73 | 1014.4 |
| 20260509133530 | 49 | 75 | 3.0 | 6.0 | 0.00 | 0.00 | 0.00 | 73 | 1014.5 |
| 20260509133043 | 49 | 89 | 1.0 | 8.0 | 0.00 | 0.00 | 0.00 | 72 | 1014.5 |
| 20260509132530 | 49 | 62 | 2.0 | 8.0 | 0.00 | 0.00 | 0.00 | 71 | 1014.3 |
| 20260509132030 | 50 | 117 | 3.0 | 9.0 | 0.00 | 0.00 | 0.00 | 70 | 1014.3 |
| 20260509131543 | 50 | 79 | 2.0 | 9.0 | 0.00 | 0.00 | 0.00 | 68 | 1014.4 |
| 20260509131029 | 51 | 79 | 3.0 | 9.0 | 0.00 | 0.00 | 0.00 | 67 | 1014.2 |
| 20260509130529 | 52 | 167 | 2.0 | 7.0 | 0.00 | 0.00 | 0.00 | 63 | 1014.2 |
| 20260509130058 | 53 | 90 | 1.0 | 7.0 | 0.00 | 0.00 | 0.00 | 59 | 1014.1 |
| 20260509125529 | 53 | 45 | 1.0 | 3.0 | 0.00 | 0.00 | 0.00 | 60 | 1014.1 |
| 20260509125030 | 53 | 30 | 0.0 | 6.0 | 0.00 | 0.00 | 0.00 | 60 | 1014.2 |
| 20260509124548 | 53 | 0 | 1.0 | 6.0 | 0.00 | 0.00 | 0.00 | 59 | 1014.2 |
| 20260509124030 | 53 | 136 | 0.0 | 6.0 | 0.00 | 0.00 | 0.00 | 59 | 1014.1 |
| 20260509123530 | 53 | 193 | 0.0 | 6.0 | 0.00 | 0.00 | 0.00 | 57 | 1014.0 |
| 20260509123043 | 53 | 0 | 2.0 | 5.0 | 0.00 | 0.00 | 0.00 | 54 | 1014.2 |
| 20260509122529 | 54 | 248 | 1.0 | 4.0 | 0.00 | 0.00 | 0.00 | 53 | 1014.3 |
| 20260509122030 | 55 | 259 | 1.0 | 10.0 | 0.00 | 0.00 | 0.00 | 50 | 1014.3 |
| 20260509121539 | 55 | 249 | 2.0 | 10.0 | 0.00 | 0.00 | 0.00 | 46 | 1014.2 |
| 20260509121030 | 55 | 189 | 4.0 | 10.0 | 0.00 | 0.00 | 0.00 | 45 | 1014.1 |
| 20260509120530 | 55 | 112 | 3.0 | 9.0 | 0.00 | 0.00 | 0.00 | 45 | 1014.1 |
| 20260509120041 | 55 | 123 | 3.0 | 9.0 | 0.00 | 0.00 | 0.00 | 45 | 1014.2 |
| 20260509115532 | 55 | 143 | 3.0 | 9.0 | 0.00 | 0.00 | 0.00 | 45 | 1014.3 |
| 20260509115029 | 55 | 156 | 4.0 | 9.0 | 0.00 | 0.00 | 0.00 | 44 | 1014.4 |
| 20260509114544 | 55 | 188 | 1.0 | 9.0 | 0.00 | 0.00 | 0.00 | 45 | 1014.3 |
| 20260509114029 | 55 | 150 | 2.0 | 10.0 | 0.00 | 0.00 | 0.00 | 45 | 1014.6 |
| 20260509113530 | 55 | 160 | 3.0 | 10.0 | 0.00 | 0.00 | 0.00 | 44 | 1014.5 |
| 20260509113050 | 55 | 138 | 3.0 | 8.0 | 0.00 | 0.00 | 0.00 | 45 | 1014.5 |
| 20260509112530 | 55 | 127 | 3.0 | 14.0 | 0.00 | 0.00 | 0.00 | 44 | 1014.6 |
| 20260509112030 | 55 | 151 | 3.0 | 14.0 | 0.00 | 0.00 | 0.00 | 45 | 1014.6 |
| 20260509111542 | 55 | 146 | 5.0 | 12.0 | 0.00 | 0.00 | 0.00 | 44 | 1014.5 |
| 20260509111032 | 55 | 167 | 4.0 | 12.0 | 0.00 | 0.00 | 0.00 | 45 | 1014.7 |
| 20260509110529 | 55 | 175 | 5.0 | 12.0 | 0.00 | 0.00 | 0.00 | 44 | 1014.6 |
| 20260509110045 | 55 | 142 | 2.0 | 12.0 | 0.00 | 0.00 | 0.00 | 45 | 1014.6 |
| 20260509105530 | 55 | 126 | 3.0 | 12.0 | 0.00 | 0.00 | 0.00 | 45 | 1014.7 |
| 20260509105030 | 55 | 68 | 4.0 | 12.0 | 0.00 | 0.00 | 0.00 | 45 | 1014.6 |
| 20260509104538 | 55 | 150 | 4.0 | 8.0 | 0.00 | 0.00 | 0.00 | 45 | 1014.6 |
| 20260509104031 | 55 | 257 | 3.0 | 13.0 | 0.00 | 0.00 | 0.00 | 45 | 1014.7 |
| 20260509103529 | 55 | 154 | 5.0 | 13.0 | 0.00 | 0.00 | 0.00 | 44 | 1014.7 |
| 20260509103048 | 55 | 67 | 2.0 | 8.0 | 0.00 | 0.00 | 0.00 | 44 | 1014.7 |
| 20260509102530 | 55 | 150 | 3.0 | 8.0 | 0.00 | 0.00 | 0.00 | 44 | 1014.7 |
| 20260509102029 | 55 | 155 | 2.0 | 8.0 | 0.00 | 0.00 | 0.00 | 45 | 1014.8 |
| 20260509101557 | 55 | 139 | 2.0 | 8.0 | 0.00 | 0.00 | 0.00 | 46 | 1014.9 |
| 20260509101031 | 55 | 119 | 2.0 | 8.0 | 0.00 | 0.00 | 0.00 | 46 | 1015.0 |
| 20260509100529 | 55 | 142 | 2.0 | 5.0 | 0.00 | 0.00 | 0.00 | 47 | 1015.0 |
| 20260509100037 | 55 | 135 | 2.0 | 7.0 | 0.00 | 0.00 | 0.00 | 47 | 1015.0 |
| 20260509095531 | 54 | 163 | 2.0 | 7.0 | 0.00 | 0.00 | 0.00 | 47 | 1015.0 |
| 20260509095029 | 54 | 153 | 2.0 | 8.0 | 0.00 | 0.00 | 0.00 | 47 | 1015.0 |
| 20260509094542 | 54 | 148 | 3.0 | 8.0 | 0.00 | 0.00 | 0.00 | 47 | 1015.1 |
| 20260509094029 | 54 | 127 | 1.0 | 7.0 | 0.00 | 0.00 | 0.00 | 49 | 1015.1 |
| 20260509093532 | 54 | 155 | 2.0 | 7.0 | 0.00 | 0.00 | 0.00 | 48 | 1015.1 |
| 20260509093041 | 54 | 105 | 2.0 | 5.0 | 0.00 | 0.00 | 0.00 | 48 | 1015.1 |
| 20260509092529 | 54 | 162 | 2.0 | 8.0 | 0.00 | 0.00 | 0.00 | 48 | 1015.2 |
| 20260509092029 | 53 | 147 | 2.0 | 8.0 | 0.00 | 0.00 | 0.00 | 49 | 1015.2 |
| 20260509091543 | 53 | 147 | 3.0 | 8.0 | 0.00 | 0.00 | 0.00 | 49 | 1015.3 |
| 20260509091030 | 52 | 144 | 3.0 | 6.0 | 0.00 | 0.00 | 0.00 | 51 | 1015.2 |
| 20260509090534 | 51 | 160 | 0.0 | 6.0 | 0.00 | 0.00 | 0.00 | 60 | 1015.3 |
| 20260509090048 | 51 | 143 | 0.0 | 2.0 | 0.00 | 0.00 | 0.00 | 64 | 1015.3 |
| 20260509085529 | 51 | 0 | 0.0 | 0.0 | 0.00 | 0.00 | 0.00 | 64 | 1015.2 |
| 20260509085030 | 51 | 0 | 0.0 | 3.0 | 0.00 | 0.00 | 0.00 | 62 | 1015.3 |
| 20260509084547 | 51 | 0 | 0.0 | 3.0 | 0.00 | 0.00 | 0.00 | 62 | 1015.3 |
| 20260509084030 | 51 | 124 | 1.0 | 3.0 | 0.00 | 0.00 | 0.00 | 61 | 1015.4 |
| 20260509083529 | 51 | 149 | 0.0 | 3.0 | 0.00 | 0.00 | 0.00 | 60 | 1015.5 |
| 20260509083052 | 51 | 0 | 0.0 | 1.0 | 0.00 | 0.00 | 0.00 | 62 | 1015.4 |
| 20260509082533 | 50 | 327 | 0.0 | 2.0 | 0.00 | 0.00 | 0.00 | 62 | 1015.5 |
| 20260509082030 | 50 | 0 | 0.0 | 2.0 | 0.00 | 0.00 | 0.00 | 61 | 1015.5 |
| 20260509081539 | 51 | 53 | 0.0 | 2.0 | 0.00 | 0.00 | 0.00 | 63 | 1015.6 |
| 20260509081029 | 50 | 0 | 0.0 | 2.0 | 0.00 | 0.00 | 0.00 | 63 | 1015.6 |
| 20260509080532 | 50 | 47 | 1.0 | 2.0 | 0.00 | 0.00 | 0.00 | 62 | 1015.7 |
| 20260509080046 | 50 | 0 | 1.0 | 2.0 | 0.00 | 0.00 | 0.00 | 62 | 1015.7 |
| 20260509075533 | 51 | 34 | 1.0 | 3.0 | 0.00 | 0.00 | 0.00 | 61 | 1015.7 |
| 20260509075030 | 51 | 35 | 1.0 | 3.0 | 0.00 | 0.00 | 0.00 | 60 | 1015.7 |
| 20260509074552 | 51 | 60 | 0.0 | 3.0 | 0.00 | 0.00 | 0.00 | 62 | 1015.8 |
| 20260509074032 | 51 | 37 | 0.0 | 3.0 | 0.00 | 0.00 | 0.00 | 60 | 1015.8 |
| 20260509073534 | 51 | 72 | 0.0 | 1.0 | 0.00 | 0.00 | 0.00 | 61 | 1015.8 |
| 20260509073042 | 51 | 0 | 0.0 | 3.0 | 0.00 | 0.00 | 0.00 | 61 | 1015.8 |
| 20260509072532 | 52 | 0 | 0.0 | 4.0 | 0.00 | 0.00 | 0.00 | 61 | 1015.8 |
| 20260509072030 | 52 | 147 | 1.0 | 4.0 | 0.00 | 0.00 | 0.00 | 52 | 1015.9 |
| 20260509071543 | 52 | 340 | 1.0 | 6.0 | 0.00 | 0.00 | 0.00 | 52 | 1015.9 |
| 20260509071030 | 52 | 154 | 1.0 | 7.0 | 0.00 | 0.00 | 0.00 | 52 | 1015.9 |
| 20260509070533 | 51 | 124 | 1.0 | 7.0 | 0.00 | 0.00 | 0.00 | 52 | 1015.9 |
| 20260509070044 | 51 | 148 | 1.0 | 7.0 | 0.00 | 0.00 | 0.00 | 52 | 1015.9 |
| 20260509065529 | 51 | 137 | 2.0 | 7.0 | 0.00 | 0.00 | 0.00 | 52 | 1015.9 |
| 20260509065032 | 51 | 88 | 2.0 | 4.0 | 0.00 | 0.00 | 0.00 | 53 | 1016.0 |
| 20260509064539 | 51 | 167 | 1.0 | 4.0 | 0.00 | 0.00 | 0.00 | 53 | 1015.9 |
| 20260509064031 | 51 | 45 | 1.0 | 4.0 | 0.00 | 0.00 | 0.00 | 53 | 1015.8 |
| 20260509063532 | 50 | 148 | 1.0 | 3.0 | 0.00 | 0.00 | 0.00 | 54 | 1015.8 |
| 20260509063040 | 50 | 101 | 0.0 | 3.0 | 0.00 | 0.00 | 0.00 | 54 | 1015.9 |
| 20260509062530 | 50 | 98 | 1.0 | 6.0 | 0.00 | 0.00 | 0.00 | 54 | 1015.8 |
| 20260509062033 | 50 | 152 | 0.0 | 6.0 | 0.00 | 0.00 | 0.00 | 55 | 1015.8 |
| 20260509061544 | 50 | 131 | 2.0 | 6.0 | 0.00 | 0.00 | 0.00 | 54 | 1015.8 |
| 20260509061032 | 50 | 0 | 1.0 | 5.0 | 0.00 | 0.00 | 0.00 | 55 | 1015.8 |
| 20260509060532 | 50 | 153 | 1.0 | 5.0 | 0.00 | 0.00 | 0.00 | 54 | 1015.8 |
| 20260509060106 | 49 | 141 | 1.0 | 5.0 | 0.00 | 0.00 | 0.00 | 54 | 1015.7 |
| 20260509055530 | 49 | 233 | 1.0 | 7.0 | 0.00 | 0.00 | 0.00 | 56 | 1015.9 |
| 20260509055031 | 49 | 292 | 0.0 | 7.0 | 0.00 | 0.00 | 0.00 | 55 | 1015.7 |
| 20260509054549 | 49 | 0 | 0.0 | 2.0 | 0.00 | 0.00 | 0.00 | 56 | 1015.6 |
| 20260509054035 | 49 | 115 | 0.0 | 2.0 | 0.00 | 0.00 | 0.00 | 54 | 1015.7 |
| 20260509053532 | 49 | 0 | 0.0 | 2.0 | 0.00 | 0.00 | 0.00 | 54 | 1015.7 |
| 20260509053110 | 49 | 0 | 0.0 | 2.0 | 0.00 | 0.00 | 0.00 | 55 | 1015.7 |
| 20260509052533 | 49 | 0 | 0.0 | 4.0 | 0.00 | 0.00 | 0.00 | 56 | 1015.6 |
| 20260509052032 | 49 | 210 | 0.0 | 4.0 | 0.00 | 0.00 | 0.00 | 56 | 1015.6 |
| 20260509051551 | 49 | 120 | 2.0 | 4.0 | 0.00 | 0.00 | 0.00 | 55 | 1015.5 |
| 20260509051030 | 48 | 158 | 1.0 | 4.0 | 0.00 | 0.00 | 0.00 | 55 | 1015.6 |
| 20260509050532 | 48 | 142 | 0.0 | 2.0 | 0.00 | 0.00 | 0.00 | 56 | 1015.6 |
| 20260509050047 | 48 | 141 | 0.0 | 2.0 | 0.00 | 0.00 | 0.00 | 57 | 1015.6 |
| 20260509045532 | 48 | 142 | 0.0 | 2.0 | 0.00 | 0.00 | 0.00 | 56 | 1015.6 |
| 20260509045030 | 48 | 155 | 0.0 | 1.0 | 0.00 | 0.00 | 0.00 | 57 | 1015.6 |
| 20260509044559 | 48 | 0 | 0.0 | 1.0 | 0.00 | 0.00 | 0.00 | 58 | 1015.6 |
| 20260509044031 | 48 | 0 | 0.0 | 0.0 | 0.00 | 0.00 | 0.00 | 57 | 1015.6 |